Regional Weather Roundup
Issued by NWS

Home | Current Version | Previous Version | Graphics & Text | Print | Product List | Glossary On
Versions: 1 2 3 4 5 6 7 8 9 10 11 12 13 14 15 16 17 18 19 20 21 22 23 24 25 26 27 28 29 30 31 32 33 34 35 36 37 38 39 40 41 42 43 44 45 46 47 48 49 50
000
ASUS43 KDTX 051110
RWRMI
MICHIGAN HOURLY REGIONAL WEATHER ROUNDUP
NATIONAL WEATHER SERVICE DETROIT/PONTIAC MI
700 AM EDT SUN JUL 05 2015

NOTE: "FAIR" INDICATES FEW OR NO CLOUDS BELOW 12,000 FEET WITH NO
SIGNIFICANT WEATHER AND/OR OBSTRUCTION TO VISIBILITY.

MIZ047>049-052>055-059>063-066>070-074>076-081>083-051200-
SOUTHEAST LOWER MICHIGAN

CITY           SKY/WX    TMP DP  RH WIND       PRES   REMARKS
ADRIAN         CLEAR     57  56  96 CALM      30.13R
ALMA           FOG       55  55  99 CALM      30.10R VSB 1/4
ANN ARBOR      CLEAR     54  53  97 W3        30.12R
BAD AXE        CLEAR     57  55  95 S3        30.09R FOG
CARO           CLEAR     58  58  99 CALM      30.09R FOG
DETROIT CITY   CLEAR     63  56  78 CALM      30.11R HAZE
DETROIT        PTCLDY    60  57  89 S3        30.12R FOG
FLINT          CLEAR     60  56  86 CALM      30.11R FOG
GROSSE ILE     CLEAR     61  57  88 CALM      30.11R FOG
HILLSDALE      CLEAR     56  56 100 CALM      30.13R FOG
HOWELL         CLEAR     57  55  95 CALM      30.11R FOG

CITY           SKY/WX    TMP DP  RH WIND       PRES   REMARKS
JACKSON        CLEAR     56  54  93 CALM      30.12R FOG
LAMBERTVILLE   CLEAR     58  55  91 CALM      30.13R FOG
LANSING        CLEAR     59  57  93 CALM      30.10S FOG
LAPEER         FAIR      55  53  95 CALM      30.11R FOG
MASON          CLEAR     55  55  97 CALM      30.11S FOG
MONROE         FOG       56  56  98 CALM      30.11R VSB 3/4
MT. CLEMENS    CLEAR     60  56  85 CALM      30.09R
PONTIAC        CLEAR     60  57  89 CALM      30.11R FOG
PORT HOPE        N/A     62  59  90 SW6       30.06R
PORT HURON       N/A     57  57 100 S3        30.11R FOG
TRI CITIES     CLEAR     62  59  90 CALM      30.09R
MIDLAND        FAIR      56  55  95 CALM      30.07S FOG
TROY           CLEAR     63  58  85 SW3       30.13R HAZE
SAGINAW HB     CLEAR     59  59 100 S5        30.08R FOG
$$
MIZ043>046-050>051-056>058-064>065-071>073-077>080-051200-
SOUTHWEST LOWER MICHIGAN

CITY           SKY/WX    TMP DP  RH WIND       PRES   REMARKS
BATTLE CREEK   CLEAR     60  57  89 CALM      30.11S FOG
BENTON HARBOR  CLEAR     54  52  93 CALM      30.07F FOG
BIG RAPIDS     CLEAR     55  52  90 CALM      30.09S FOG
COLDWATER        N/A     56  55  99 CALM      30.11S FOG
FREMONT        FOG       57  56  99 E3        30.08R VSB 1
HOLLAND        CLEAR     58  56  93 E3        30.09R FOG
GRAND RAPIDS   CLOUDY    56  54  93 CALM      30.09S FOG
IONIA            N/A     58  57  98 CALM      30.09S FOG
KALAMAZOO      CLEAR     57  55  93 CALM      30.11S FOG
LUDINGTON      FOG       56  54  93 CALM      30.07S VSB 1
MARSHALL       CLEAR     55  54  96 CALM      30.11R FOG
MOUNT PLEASANT FOG       58  57  97 CALM      30.08S VSB<1/4
MUSKEGON       CLEAR     57  55  93 CALM      30.08R FOG
SOUTH HAVEN    CLEAR     57  55  94 CALM      30.08S FOG
$$
MIZ016>042-051200-
NORTHERN LOWER MICHIGAN

CITY           SKY/WX    TMP DP  RH WIND       PRES   REMARKS
ALPENA         CLEAR     50  47  89 CALM      30.08S
BEAVER ISLAND  CLEAR     53  53  98 CALM      30.05R FOG
BELLAIRE       CLEAR     51  50  96 CALM      30.07R FOG
CADILLAC         N/A     52  49  92 CALM      30.08S FOG
CHARLEVOIX     CLEAR     57  56  97 SE5       30.08S FOG
FRANKFORT      CLEAR     56  50  79 CALM      30.06R
GAYLORD        CLEAR     51  49  92 CALM      30.09R
GRAYLING       CLEAR     46  45  95 CALM      30.10R FOG
HARBOR SPRINGS CLEAR     54  53  96 CALM      30.06S FOG
HOUGHTON LAKE  CLEAR     51  50  96 E3        30.09S FOG
MANISTEE       CLEAR     55  52  88 E3        30.08R
OSCODA         CLEAR     52  50  92 CALM      30.07R
ROGERS CITY    CLEAR     60  57  90 S6        30.07S
TRAVERSE CITY  MOCLDY    59  56  89 CALM      30.05R FOG
$$
MIZ007>008-015-051200-
EASTERN UPPER MICHIGAN

CITY           SKY/WX    TMP DP  RH WIND       PRES   REMARKS
KINROSS        CLEAR     54  52  94 S3        30.07R
MACKINAC ISLAN CLEAR     57  57 100 CALM      30.06R FOG
NEWBERRY       MOCLDY    53  53 100 CALM      30.04S FOG
S. S. MARIE    CLOUDY    50  49  96 NE3       30.07R FOG
MUNISING         N/A     64  57  78 S9        30.01R
$$
MIZ004>006-011>014-085-051200-
CENTRAL UPPER MICHIGAN

CITY           SKY/WX    TMP DP  RH WIND       PRES   REMARKS
MANISTIQUE       N/A     57  56  96 S5        30.04R FOG
ESCANABA       MOCLDY    61  57  88 CALM      30.03R
MENOMINEE      CLEAR     63  57  82 CALM      30.03R
SAWYER-GWINN   CLEAR     57  55  94 S3          N/A  FOG
$$
MIZ001>003-009>011-084-051200-
WESTERN UPPER MICHIGAN

CITY           SKY/WX    TMP DP  RH WIND       PRES   REMARKS
IRON MOUNTAIN  MOCLDY    60  58  92 CALM      30.02R FOG
HOUGHTON       MOCLDY    62  60  93 S7        29.97R FOG
COPPER HARBOR    N/A     65  58  78 W12G20    29.93S
IRONWOOD       CLEAR     64  63  94 SW6       29.96S
$$

ABBREVIATIONS USED IN REMARKS
   TC - TEMPERATURE IN CELSIUS
  WCI - WIND CHILL INDEX
   HX - HEAT INDEX
  VSB - VISIBILITY




USA.gov is the U.S. government's official web portal to all federal, state and local government web resources and services.